Iowa Falls, IA

7:24 AM CST on February 22, 2018 (GMT -0600)
Iowa Falls Municipal

Weather History for KIFA - September, 2012

Change the Weather History Date:

Sunday, September 9, 2012

  Actual Average Record
Temperature  
Mean Temperature 60 °F -  
Max Temperature 74 °F 77 °F 98 °F (1955)
Min Temperature 45 °F 53 °F 40 °F (1988)
Degree Days  
Heating Degree Days 6    
Growing Degree Days 10 (Base 50)    
Moisture  
Dew Point 45 °F    
Average Humidity 65    
Maximum Humidity 93    
Minimum Humidity 31    
Precipitation  
Precipitation 0.00 in - - ()
Sea Level Pressure  
Sea Level Pressure 30.14 in    
Wind  
Wind Speed 6 mph (NNW)    
Max Wind Speed 9 mph    
Max Gust Speed -    
Visibility 10 miles    
Events      
Averages and records for this station are not official NWS values.
T = Trace of Precipitation, MM = Missing Value Source: NWS Daily Summary

Daily Weather History Graph

Daily Weather History Graph

Search for Another Location

Airport or City:

Trip Planner

Search our weather history database for the weather conditions in past years. The results will help you decide how hot, cold, wet, or windy it might be!

Date:

Astronomy

Sep. 09, 2012 Rise Set
Actual Time 6:47 AM CDT 7:32 PM CDT
Civil Twilight 6:18 AM CDT 8:00 PM CDT
Nautical Twilight 5:44 AM CDT 8:34 PM CDT
Astronomical Twilight 5:09 AM CDT 9:09 PM CDT
Moon 12:11 AM CDT (9/9) 3:23 PM CDT (9/9)
Length of Visible Light 13h 42m
Length of Day
12h 45m
Last Quarter, 39% of the Moon is Illuminated
Sep 9
Last Quarter
Sep 15
New
Sep 22
First Quarter
Sep 29
Full
Oct 8
Last Quarter

Hourly Weather History & Observations

Time (CDT) Temp. Windchill Dew Point Humidity Pressure Visibility Wind Dir Wind Speed Gust Speed Precip Events Conditions
12:15 AM 52.0 °F - 44.1 °F 74% 30.04 in 10.0 mi NW 6.9 mph - N/A   Clear
12:35 AM 52.0 °F - 43.7 °F 73% 30.04 in 10.0 mi NW 6.9 mph - N/A   Clear
12:55 AM 51.3 °F - 43.9 °F 76% 30.05 in 10.0 mi WNW 6.9 mph - N/A   Clear
1:15 AM 49.8 °F - 43.7 °F 79% 30.05 in 10.0 mi NW 6.9 mph - N/A   Clear
1:35 AM 49.3 °F - 43.7 °F 81% 30.05 in 10.0 mi NNW 4.6 mph - N/A   Clear
1:55 AM 50.4 °F - 44.1 °F 79% 30.05 in 10.0 mi NNW 6.9 mph - N/A   Clear
2:15 AM 50.9 °F - 44.1 °F 77% 30.05 in 10.0 mi NNW 6.9 mph - N/A   Clear
2:35 AM 50.9 °F - 44.2 °F 78% 30.05 in 10.0 mi NNW 8.1 mph - N/A   Clear
2:55 AM 51.1 °F - 44.6 °F 78% 30.06 in 10.0 mi NNW 9.2 mph - N/A   Clear
3:15 AM 51.4 °F - 44.8 °F 78% 30.07 in 10.0 mi NNW 9.2 mph - N/A   Clear
3:35 AM 50.7 °F - 45.0 °F 81% 30.08 in 10.0 mi NNW 8.1 mph - N/A   Clear
3:55 AM 50.2 °F - 44.8 °F 82% 30.08 in 10.0 mi NNW 6.9 mph - N/A   Clear
4:15 AM 49.6 °F - 44.8 °F 83% 30.09 in 10.0 mi NNW 5.8 mph - N/A   Clear
4:35 AM 49.1 °F - 44.8 °F 85% 30.09 in 10.0 mi NNW 6.9 mph - N/A   Clear
4:55 AM 48.6 °F - 44.6 °F 86% 30.10 in 10.0 mi NNW 5.8 mph - N/A   Clear
5:15 AM 48.0 °F - 44.6 °F 88% 30.11 in 10.0 mi NNW 5.8 mph - N/A   Clear
5:35 AM 46.6 °F - 43.3 °F 88% 30.11 in 10.0 mi West 5.8 mph - N/A   Clear
5:55 AM 45.7 °F 43.4 °F 43.3 °F 92% 30.12 in 10.0 mi West 4.6 mph - N/A   Clear
6:15 AM 45.7 °F 44.4 °F 43.7 °F 93% 30.13 in 10.0 mi NW 3.5 mph - N/A   Clear
6:35 AM 45.5 °F 44.2 °F 43.2 °F 92% 30.14 in 10.0 mi WNW 3.5 mph - N/A   Clear
6:55 AM 45.5 °F 43.2 °F 43.2 °F 92% 30.15 in 10.0 mi WNW 4.6 mph - N/A   Clear
7:15 AM 45.7 °F 43.4 °F 43.7 °F 93% 30.16 in 10.0 mi NW 4.6 mph - N/A   Clear
7:35 AM 46.6 °F - 44.4 °F 92% 30.16 in 10.0 mi NW 4.6 mph - N/A   Clear
7:55 AM 48.2 °F - 45.5 °F 90% 30.17 in 10.0 mi NW 3.5 mph - N/A   Clear
8:15 AM 50.2 °F - 46.9 °F 89% 30.18 in 10.0 mi NNW 6.9 mph - N/A   Clear
8:35 AM 52.7 °F - 47.8 °F 84% 30.19 in 10.0 mi NNW 6.9 mph - N/A   Clear
8:55 AM 55.2 °F - 48.9 °F 79% 30.19 in 10.0 mi NNW 8.1 mph - N/A   Clear
9:35 AM 58.6 °F - 49.5 °F 72% 30.20 in 10.0 mi NNE 6.9 mph - N/A   Clear
9:55 AM 59.9 °F - 49.6 °F 69% 30.21 in 10.0 mi North 8.1 mph - N/A   Clear
10:15 AM 61.7 °F - 49.8 °F 65% 30.21 in 10.0 mi NNE 6.9 mph - N/A   Clear
10:35 AM 62.1 °F - 49.6 °F 64% 30.21 in 10.0 mi North 4.6 mph - N/A   Clear
10:55 AM 63.3 °F - 48.6 °F 59% 30.21 in 10.0 mi NNE 8.1 mph - N/A   Clear
11:15 AM 64.0 °F - 48.4 °F 57% 30.21 in 10.0 mi North 9.2 mph - N/A   Clear
11:35 AM 65.5 °F - 48.6 °F 54% 30.21 in 10.0 mi North 6.9 mph - N/A   Clear
11:55 AM 65.7 °F - 46.9 °F 51% 30.21 in 10.0 mi NNE 5.8 mph - N/A   Clear
12:15 PM 67.5 °F - 47.1 °F 48% 30.21 in 10.0 mi North 9.2 mph - N/A   Clear
12:35 PM 68.4 °F - 46.8 °F 46% 30.21 in 10.0 mi North 6.9 mph - N/A   Clear
12:55 PM 68.7 °F - 46.2 °F 44% 30.20 in 10.0 mi North 5.8 mph - N/A   Clear
1:15 PM 69.3 °F - 45.1 °F 42% 30.20 in 10.0 mi NNW 3.5 mph - N/A   Clear
1:35 PM 69.6 °F - 45.0 °F 41% 30.19 in 10.0 mi NW 6.9 mph - N/A   Clear
1:55 PM 70.9 °F - 43.3 °F 37% 30.19 in 10.0 mi North 5.8 mph - N/A   Clear
2:15 PM 71.6 °F - 45.3 °F 39% 30.18 in 10.0 mi Calm Calm - N/A   Clear
2:55 PM 72.5 °F - 44.2 °F 36% 30.17 in 10.0 mi West 4.6 mph - N/A   Clear
3:15 PM 72.9 °F - 43.9 °F 35% 30.16 in 10.0 mi NW 3.5 mph - N/A   Clear
3:55 PM 73.6 °F - 42.1 °F 32% 30.16 in 10.0 mi North 4.6 mph - N/A   Clear
4:15 PM 73.8 °F - 43.3 °F 34% 30.15 in 10.0 mi ENE 3.5 mph - N/A   Clear
4:35 PM 73.9 °F - 41.9 °F 32% 30.15 in 10.0 mi Calm Calm - N/A   Clear
4:55 PM 73.9 °F - 42.3 °F 32% 30.14 in 10.0 mi Calm Calm - N/A   Clear
5:15 PM 74.7 °F - 41.7 °F 31% 30.15 in 10.0 mi Calm Calm - N/A   Clear
5:55 PM 73.8 °F - 41.2 °F 31% 30.14 in 10.0 mi NE 4.6 mph - N/A   Clear
6:15 PM 73.6 °F - 41.9 °F 32% 30.14 in 10.0 mi Calm Calm - N/A   Clear
6:35 PM 73.4 °F - 41.4 °F 31% 30.14 in 10.0 mi Calm Calm - N/A   Clear
6:55 PM 72.1 °F - 42.4 °F 34% 30.14 in 10.0 mi Calm Calm - N/A   Clear
7:15 PM 71.1 °F - 42.6 °F 36% 30.13 in 10.0 mi Calm Calm - N/A   Clear
7:35 PM 68.9 °F - 45.1 °F 42% 30.13 in 10.0 mi Calm Calm - N/A   Clear
8:15 PM 60.6 °F - 48.6 °F 64% 30.14 in 10.0 mi Calm Calm - N/A   Clear
8:35 PM 58.3 °F - 49.3 °F 72% 30.14 in 10.0 mi Calm Calm - N/A   Clear
8:55 PM 59.2 °F - 48.0 °F 66% 30.15 in 10.0 mi Calm Calm - N/A   Clear
9:15 PM 58.5 °F - 47.7 °F 67% 30.15 in 10.0 mi SSE 3.5 mph - N/A   Clear
9:35 PM 57.9 °F - 47.7 °F 69% 30.15 in 10.0 mi South 5.8 mph - N/A   Clear
9:55 PM 57.2 °F - 47.3 °F 69% 30.15 in 10.0 mi South 6.9 mph - N/A   Clear
10:15 PM 56.5 °F - 47.1 °F 71% 30.14 in 10.0 mi South 6.9 mph - N/A   Clear
10:35 PM 57.0 °F - 46.6 °F 68% 30.15 in 10.0 mi SSW 6.9 mph - N/A   Clear
10:55 PM 55.2 °F - 46.8 °F 73% 30.15 in 10.0 mi SW 6.9 mph - N/A   Clear
11:15 PM 54.5 °F - 46.8 °F 75% 30.15 in 10.0 mi SSW 6.9 mph - N/A   Clear
11:35 PM 54.7 °F - 46.4 °F 74% 30.15 in 10.0 mi East 3.5 mph - N/A   Clear
11:55 PM 51.8 °F - 46.4 °F 82% 30.16 in 10.0 mi ESE 4.6 mph - N/A   Clear